Regional Weather Roundup
Issued by NWS Sioux Falls, SD

Home | Current Version | Previous Version | Text Only | Print | Product List | Glossary On
Versions: 1 2 3 4 5 6 7 8 9 10 11 12 13 14 15 16 17 18 19 20 21 22 23 24 25 26 27 28 29 30 31 32 33 34 35 36 37 38 39 40 41 42 43 44 45 46 47 48 49 50
000
ASUS43 KFSD 280110
RWRFSD

WEATHER ROUNDUP FOR SE SOUTH DAKOTA/SW MINNESOTA/NW IOWA
NATIONAL WEATHER SERVICE SIOUX FALLS SD
700 PM CST SAT DEC 27 2014

NOTE: "FAIR" INDICATES FEW OR NO CLOUDS BELOW 12,000 FEET WITH NO
SIGNIFICANT WEATHER AND OR OBSTRUCTIONS TO VISIBILITY.


SDZ038>040-050-052>070-280200-
SOUTHEAST SOUTH DAKOTA

CITY           SKY/WX    TMP DP  RH WIND       PRES   REMARKS
CHAMBERLAIN    CLEAR     13  10  88 CALM      30.11S
HURON          CLEAR     13   9  84 S8        30.11F WCI   2
MADISON        FAIR      10  10 100 SW12      30.12R WCI  -4
MITCHELL       CLEAR     14  10  84 SW6       30.16R WCI   5
SIOUX FALLS    CLEAR     13   9  84 SW5       30.15S WCI   5
WINNER         FAIR      19  10  68 SW8       30.10S WCI   9
YANKTON        CLEAR     16  10  79 SW6       30.19S WCI   7
$$

MNZ071-072-080-081-089-090-097-098-280200-
SOUTHWEST MINNESOTA

CITY           SKY/WX    TMP DP  RH WIND       PRES   REMARKS
FAIRMONT       CLEAR     16   7  67 SW9       30.13F WCI   4
JACKSON        CLEAR     12   9  85 SW10      30.13S WCI  -1
LUVERNE        CLEAR     10   7  85 CALM      30.16S
MARSHALL       CLEAR     14   7  73 SW15      30.11S WCI  -1
MONTEVIDEO     CLEAR     16  14  93 W7        30.12S WCI   6
PIPESTONE      CLEAR      7   3  85 SW9       30.11S WCI  -7
REDWOOD FALLS  CLEAR     14   8  77 SW13      30.12S WCI   0
TRACY          CLEAR     13   9  83 SW15      30.13R WCI  -3
WINDOM         CLEAR     10   7  85 SW5       30.13R WCI   2
WORTHINGTON    CLEAR     10 -33  12 SW9       30.13F WCI  -2
$$

IAZ001>003-012>014-020>022-031-032-NEZ013-014-SDZ071-280200-
NORTHWEST IOWA

CITY           SKY/WX    TMP DP  RH WIND       PRES   REMARKS
CHEROKEE       CLEAR     11   9  93 S3        30.19F
DENISON        CLEAR     18  12  79 W7        30.21R WCI   8
ESTHERVILLE    CLEAR     12   8  84 SW10      30.14F WCI  -1
LE MARS        CLEAR      9   7  92 S3        30.21S
ORANGE CITY    CLEAR     12   9  85 S5        30.17F WCI   4
SHELDON        CLEAR     10   9  92 SW9       30.15F WCI  -2
SIOUX CITY     CLEAR     12   9  87 SW5       30.23S WCI   4
SPENCER        CLEAR      8   4  83 SW7       30.17F WCI  -3
STORM LAKE     CLEAR     10   7  85 SW7       30.18F WCI   0
$$

ABBREVIATIONS USED IN REMARKS
   TC - TEMPERATURE IN CELSIUS
  WCI - WIND CHILL INDEX
   HX - HEAT INDEX
  VSB - VISIBILITY



USA.gov is the U.S. government's official web portal to all federal, state and local government web resources and services.